Time,TemperatureF,DewpointF,PressureIn,WindDirection,WindDirectionDegrees,WindSpeedMPH,WindSpeedGustMPH,Humidity,HourlyPrecipIn,Conditions,Clouds,dailyrainin,SoftwareType,DateUTC
2013-12-07 00:14:00,9.9,4.0,30.67,NNW,337,3.0,8.0,78,0.00,,,0.00,weatherlink.com 1.10,2013-12-07 06:14:00,
2013-12-07 00:29:00,9.7,4.0,30.67,NNW,331,3.0,6.0,79,0.00,,,0.00,weatherlink.com 1.10,2013-12-07 06:29:00,
2013-12-07 00:44:00,9.4,4.0,30.67,NNW,336,3.0,7.0,80,0.00,,,0.00,weatherlink.com 1.10,2013-12-07 06:44:00,
2013-12-07 00:59:00,9.2,4.0,30.67,NNW,344,2.0,7.0,79,0.00,,,0.00,weatherlink.com 1.10,2013-12-07 06:59:00,
2013-12-07 01:14:00,9.0,4.0,30.67,North,360,2.0,7.0,79,0.00,,,0.00,weatherlink.com 1.10,2013-12-07 07:14:00,
2013-12-07 01:29:00,8.6,4.0,30.68,NW,325,2.0,6.0,80,0.00,,,0.00,weatherlink.com 1.10,2013-12-07 07:29:00,
2013-12-07 01:44:00,8.4,4.0,30.68,NNW,332,3.0,7.0,81,0.00,,,0.00,weatherlink.com 1.10,2013-12-07 07:44:00,
2013-12-07 01:59:00,8.1,3.0,30.68,North,355,4.0,6.0,81,0.00,,,0.00,weatherlink.com 1.10,2013-12-07 07:59:00,
2013-12-07 02:14:00,8.1,4.0,30.69,NNW,340,2.0,5.0,82,0.00,,,0.00,weatherlink.com 1.10,2013-12-07 08:14:00,
2013-12-07 02:29:00,7.8,3.0,30.69,NNW,336,3.0,5.0,81,0.00,,,0.00,weatherlink.com 1.10,2013-12-07 08:29:00,
2013-12-07 02:44:00,7.6,3.0,30.69,NNW,339,4.0,6.0,82,0.00,,,0.00,weatherlink.com 1.10,2013-12-07 08:44:00,
2013-12-07 02:59:00,7.4,3.0,30.70,NNW,331,4.0,6.0,82,0.00,,,0.00,weatherlink.com 1.10,2013-12-07 08:59:00,
2013-12-07 03:15:00,7.2,3.0,30.70,NNW,343,1.0,6.0,82,0.00,,,0.00,weatherlink.com 1.10,2013-12-07 09:15:00,
2013-12-07 03:30:00,6.9,3.0,30.70,NNW,333,2.0,5.0,82,0.00,,,0.00,weatherlink.com 1.10,2013-12-07 09:30:00,
2013-12-07 03:45:00,6.8,3.0,30.71,NW,323,3.0,6.0,84,0.00,,,0.00,weatherlink.com 1.10,2013-12-07 09:45:00,
2013-12-07 04:15:00,6.3,2.0,30.71,NNW,330,2.0,5.0,83,0.00,,,0.00,weatherlink.com 1.10,2013-12-07 10:15:00,
2013-12-07 04:30:00,6.2,2.0,30.72,NNW,338,4.0,7.0,83,0.00,,,0.00,weatherlink.com 1.10,2013-12-07 10:30:00,
2013-12-07 04:45:00,6.0,2.0,30.72,NW,326,5.0,6.0,83,0.00,,,0.00,weatherlink.com 1.10,2013-12-07 10:45:00,
2013-12-07 05:00:00,5.8,2.0,30.72,North,355,1.0,6.0,83,0.00,,,0.00,weatherlink.com 1.10,2013-12-07 11:00:00,
2013-12-07 05:15:00,5.6,2.0,30.73,NNE,13,1.0,4.0,83,0.00,,,0.00,weatherlink.com 1.10,2013-12-07 11:15:00,
2013-12-07 05:30:00,5.3,1.0,30.73,NNW,336,2.0,7.0,83,0.00,,,0.00,weatherlink.com 1.10,2013-12-07 11:30:00,
2013-12-07 05:45:00,5.2,1.0,30.74,North,350,3.0,7.0,83,0.00,,,0.00,weatherlink.com 1.10,2013-12-07 11:45:00,
2013-12-07 06:00:00,4.9,1.0,30.74,North,5,0.0,4.0,83,0.00,,,0.00,weatherlink.com 1.10,2013-12-07 12:00:00,
2013-12-07 06:15:00,4.6,1.0,30.75,NNW,333,2.0,5.0,83,0.00,,,0.00,weatherlink.com 1.10,2013-12-07 12:15:00,
2013-12-07 06:30:00,4.6,1.0,30.76,NNW,343,2.0,8.0,83,0.00,,,0.00,weatherlink.com 1.10,2013-12-07 12:30:00,
2013-12-07 06:46:00,4.6,0.0,30.77,NNW,336,5.0,6.0,82,0.00,,,0.00,weatherlink.com 1.10,2013-12-07 12:46:00,
2013-12-07 07:01:00,4.3,0.0,30.77,NNW,330,2.0,4.0,83,0.00,,,0.00,weatherlink.com 1.10,2013-12-07 13:01:00,
2013-12-07 07:16:00,4.0,0.0,30.77,North,355,3.0,5.0,83,0.00,,,0.00,weatherlink.com 1.10,2013-12-07 13:16:00,
2013-12-07 07:31:00,3.8,0.0,30.77,North,350,2.0,3.0,83,0.00,,,0.00,weatherlink.com 1.10,2013-12-07 13:31:00,
2013-12-07 07:46:00,3.8,0.0,30.77,NNW,328,2.0,5.0,84,0.00,,,0.00,weatherlink.com 1.10,2013-12-07 13:46:00,
2013-12-07 08:01:00,4.6,1.0,30.78,NW,324,2.0,8.0,83,0.00,,,0.00,weatherlink.com 1.10,2013-12-07 14:01:00,
2013-12-07 08:16:00,5.4,1.0,30.78,NNW,348,2.0,7.0,81,0.00,,,0.00,weatherlink.com 1.10,2013-12-07 14:16:00,
2013-12-07 08:31:00,6.1,2.0,30.78,NNW,339,4.0,7.0,82,0.00,,,0.00,weatherlink.com 1.10,2013-12-07 14:31:00,
2013-12-07 08:46:00,6.5,2.0,30.79,NW,319,2.0,9.0,81,0.00,,,0.00,weatherlink.com 1.10,2013-12-07 14:46:00,
2013-12-07 09:01:00,7.2,3.0,30.79,NNE,17,2.0,7.0,81,0.00,,,0.00,weatherlink.com 1.10,2013-12-07 15:01:00,
2013-12-07 09:16:00,7.9,3.0,30.80,North,349,3.0,7.0,80,0.00,,,0.00,weatherlink.com 1.10,2013-12-07 15:16:00,
2013-12-07 09:31:00,8.3,3.0,30.81,NNW,347,2.0,6.0,80,0.00,,,0.00,weatherlink.com 1.10,2013-12-07 15:31:00,
2013-12-07 09:46:00,9.3,4.0,30.81,NNW,337,6.0,6.0,80,0.00,,,0.00,weatherlink.com 1.10,2013-12-07 15:46:00,
2013-12-07 10:02:00,9.9,5.0,30.81,NNE,32,4.0,8.0,79,0.00,,,0.00,weatherlink.com 1.10,2013-12-07 16:02:00,
2013-12-07 10:17:00,11.1,5.0,30.81,North,355,4.0,7.0,77,0.00,,,0.00,weatherlink.com 1.10,2013-12-07 16:17:00,
2013-12-07 10:32:00,11.4,6.0,30.81,NNE,15,4.0,6.0,77,0.00,,,0.00,weatherlink.com 1.10,2013-12-07 16:32:00,
2013-12-07 10:47:00,12.0,6.0,30.80,NNE,23,4.0,7.0,75,0.00,,,0.00,weatherlink.com 1.10,2013-12-07 16:47:00,
2013-12-07 11:02:00,12.8,6.0,30.80,NE,41,4.0,9.0,73,0.00,,,0.00,weatherlink.com 1.10,2013-12-07 17:02:00,
2013-12-07 11:17:00,13.6,6.0,30.79,NE,48,2.0,7.0,71,0.00,,,0.00,weatherlink.com 1.10,2013-12-07 17:17:00,
2013-12-07 11:32:00,14.3,6.0,30.78,NNE,16,3.0,7.0,69,0.00,,,0.00,weatherlink.com 1.10,2013-12-07 17:32:00,
2013-12-07 11:47:00,15.4,6.0,30.78,NE,34,3.0,7.0,67,0.00,,,0.00,weatherlink.com 1.10,2013-12-07 17:47:00,
2013-12-07 12:02:00,15.7,6.0,30.77,NW,320,4.0,8.0,65,0.00,,,0.00,weatherlink.com 1.10,2013-12-07 18:02:00,
2013-12-07 12:17:00,16.1,5.0,30.77,NNW,339,5.0,8.0,63,0.00,,,0.00,weatherlink.com 1.10,2013-12-07 18:17:00,
2013-12-07 12:32:00,16.5,5.0,30.77,NNW,348,3.0,7.0,62,0.00,,,0.00,weatherlink.com 1.10,2013-12-07 18:32:00,
2013-12-07 12:47:00,17.4,6.0,30.76,NW,317,2.0,8.0,60,0.00,,,0.00,weatherlink.com 1.10,2013-12-07 18:47:00,
2013-12-07 13:02:00,17.7,5.0,30.76,North,5,4.0,8.0,59,0.00,,,0.00,weatherlink.com 1.10,2013-12-07 19:02:00,
2013-12-07 13:18:00,17.7,5.0,30.75,NW,312,3.0,8.0,57,0.00,,,0.00,weatherlink.com 1.10,2013-12-07 19:18:00,
2013-12-07 13:33:00,18.5,5.0,30.74,NE,44,3.0,8.0,56,0.00,,,0.00,weatherlink.com 1.10,2013-12-07 19:33:00,
2013-12-07 13:48:00,18.5,4.0,30.74,NE,46,3.0,8.0,54,0.00,,,0.00,weatherlink.com 1.10,2013-12-07 19:48:00,
2013-12-07 14:03:00,18.8,4.0,30.73,NNE,28,3.0,8.0,53,0.00,,,0.00,weatherlink.com 1.10,2013-12-07 20:03:00,
2013-12-07 14:18:00,19.0,4.0,30.73,NW,317,4.0,9.0,53,0.00,,,0.00,weatherlink.com 1.10,2013-12-07 20:18:00,
2013-12-07 14:33:00,18.8,4.0,30.72,NE,35,1.0,7.0,52,0.00,,,0.00,weatherlink.com 1.10,2013-12-07 20:33:00,
2013-12-07 14:48:00,18.9,4.0,30.71,NE,46,5.0,8.0,53,0.00,,,0.00,weatherlink.com 1.10,2013-12-07 20:48:00,
2013-12-07 15:03:00,18.9,5.0,30.71,NNE,25,4.0,7.0,54,0.00,,,0.00,weatherlink.com 1.10,2013-12-07 21:03:00,
2013-12-07 15:18:00,18.6,4.0,30.71,East,90,3.0,7.0,53,0.00,,,0.00,weatherlink.com 1.10,2013-12-07 21:18:00,
2013-12-07 15:33:00,18.0,5.0,30.71,NNE,24,2.0,7.0,56,0.00,,,0.00,weatherlink.com 1.10,2013-12-07 21:33:00,
2013-12-07 15:48:00,17.5,5.0,30.72,NE,54,4.0,7.0,57,0.00,,,0.00,weatherlink.com 1.10,2013-12-07 21:48:00,
2013-12-07 16:03:00,17.1,4.0,30.71,ENE,61,2.0,5.0,57,0.00,,,0.00,weatherlink.com 1.10,2013-12-07 22:03:00,
2013-12-07 16:18:00,16.3,4.0,30.71,NE,50,2.0,6.0,59,0.00,,,0.00,weatherlink.com 1.10,2013-12-07 22:18:00,
2013-12-07 16:33:00,15.6,4.0,30.70,ENE,78,2.0,4.0,60,0.00,,,0.00,weatherlink.com 1.10,2013-12-07 22:33:00,
2013-12-07 16:49:00,14.9,4.0,30.69,ENE,65,1.0,3.0,61,0.00,,,0.00,weatherlink.com 1.10,2013-12-07 22:49:00,
2013-12-07 17:04:00,14.3,4.0,30.70,ENE,74,0.0,5.0,63,0.00,,,0.00,weatherlink.com 1.10,2013-12-07 23:04:00,
2013-12-07 17:19:00,13.6,4.0,30.69,ENE,59,1.0,3.0,65,0.00,,,0.00,weatherlink.com 1.10,2013-12-07 23:19:00,
2013-12-07 17:34:00,12.8,3.0,30.68,ENE,59,0.0,2.0,66,0.00,,,0.00,weatherlink.com 1.10,2013-12-07 23:34:00,
2013-12-07 17:49:00,12.3,3.0,30.68,ENE,59,0.0,2.0,67,0.00,,,0.00,weatherlink.com 1.10,2013-12-07 23:49:00,
2013-12-07 18:04:00,12.2,3.0,30.69,ENE,59,0.0,0.0,67,0.00,,,0.00,weatherlink.com 1.10,2013-12-08 00:04:00,
2013-12-07 18:19:00,11.8,3.0,30.69,ENE,59,0.0,0.0,68,0.00,,,0.00,weatherlink.com 1.10,2013-12-08 00:19:00,
2013-12-07 18:34:00,11.4,3.0,30.69,ENE,59,0.0,0.0,69,0.00,,,0.00,weatherlink.com 1.10,2013-12-08 00:34:00,
2013-12-07 18:49:00,11.4,3.0,30.69,ENE,59,0.0,0.0,70,0.00,,,0.00,weatherlink.com 1.10,2013-12-08 00:49:00,
2013-12-07 19:04:00,11.3,3.0,30.68,ENE,59,0.0,0.0,70,0.00,,,0.00,weatherlink.com 1.10,2013-12-08 01:04:00,
2013-12-07 19:20:00,11.0,3.0,30.68,ENE,59,0.0,0.0,70,0.00,,,0.00,weatherlink.com 1.10,2013-12-08 01:20:00,
2013-12-07 19:35:00,11.0,3.0,30.67,ENE,59,0.0,2.0,71,0.00,,,0.00,weatherlink.com 1.10,2013-12-08 01:35:00,
2013-12-07 19:50:00,10.8,3.0,30.67,ENE,59,0.0,2.0,71,0.00,,,0.00,weatherlink.com 1.10,2013-12-08 01:50:00,
2013-12-07 20:05:00,10.8,3.0,30.66,ENE,59,0.0,0.0,71,0.00,,,0.00,weatherlink.com 1.10,2013-12-08 02:05:00,
2013-12-07 20:20:00,10.2,3.0,30.66,ENE,59,0.0,0.0,72,0.00,,,0.00,weatherlink.com 1.10,2013-12-08 02:20:00,
2013-12-07 20:35:00,9.6,3.0,30.65,ENE,59,0.0,1.0,74,0.00,,,0.00,weatherlink.com 1.10,2013-12-08 02:35:00,
2013-12-07 20:50:00,9.3,3.0,30.65,ENE,59,0.0,0.0,74,0.00,,,0.00,weatherlink.com 1.10,2013-12-08 02:50:00,
2013-12-07 21:05:00,9.1,3.0,30.64,ENE,59,0.0,1.0,75,0.00,,,0.00,weatherlink.com 1.10,2013-12-08 03:05:00,
2013-12-07 21:20:00,9.0,3.0,30.65,ENE,59,0.0,0.0,76,0.00,,,0.00,weatherlink.com 1.10,2013-12-08 03:20:00,
2013-12-07 21:35:00,9.3,4.0,30.66,ENE,59,0.0,0.0,78,0.00,,,0.00,weatherlink.com 1.10,2013-12-08 03:35:00,
2013-12-07 21:50:00,9.4,4.0,30.66,ENE,59,0.0,0.0,78,0.00,,,0.00,weatherlink.com 1.10,2013-12-08 03:50:00,
2013-12-07 22:05:00,9.5,4.0,30.66,ENE,59,0.0,0.0,77,0.00,,,0.00,weatherlink.com 1.10,2013-12-08 04:05:00,
2013-12-07 22:20:00,9.9,5.0,30.66,ENE,59,0.0,0.0,79,0.00,,,0.00,weatherlink.com 1.10,2013-12-08 04:20:00,
2013-12-07 22:35:00,9.9,4.0,30.66,ENE,59,0.0,0.0,78,0.00,,,0.00,weatherlink.com 1.10,2013-12-08 04:35:00,
2013-12-07 22:51:00,10.3,5.0,30.66,ENE,59,0.0,2.0,78,0.00,,,0.00,weatherlink.com 1.10,2013-12-08 04:51:00,
2013-12-07 23:06:00,10.7,5.0,30.68,ENE,59,0.0,0.0,78,0.00,,,0.00,weatherlink.com 1.10,2013-12-08 05:06:00,
2013-12-07 23:21:00,11.3,6.0,30.69,ENE,59,0.0,0.0,79,0.00,,,0.00,weatherlink.com 1.10,2013-12-08 05:21:00,
2013-12-07 23:36:00,11.6,6.0,30.67,ENE,59,0.0,1.0,79,0.00,,,0.00,weatherlink.com 1.10,2013-12-08 05:36:00,
2013-12-07 23:51:00,11.6,7.0,30.65,ENE,59,1.0,2.0,80,0.00,,,0.00,weatherlink.com 1.10,2013-12-08 05:51:00,